Location: Campitello
(46.4667°N, 11.7333°E)
Time: 11:28:41
(UTC+00:00)

Daily predictions for brighter satellites

Satellite Brightness Start Highest point End
(mag) Time Altitude Azimuth Time Altitude Azimuth Time Altitude Azimuth
H-2A R/B 3.3 18:18:59 10° S 18:23:53 44° W 18:28:41 10° NNW
Cosmos 1689 Rocket 2.0 18:22:49 10° NNE 18:25:42 84° WNW 18:28:32 10° SSW
Atlas Centaur 2 4.3 18:20:32 10° SW 18:26:53 24° S 18:33:05 10° ESE
Cosmos 220 Rocket 4.4 18:24:28 10° NNW 18:28:47 47° ENE 18:33:02 10° SE
ATLAS 5 CENTAUR R/B 2.7 18:26:05 10° SSE 18:28:47 18° ESE 18:31:39 10° ENE
Cosmos 1953 2.3 18:26:47 10° S 18:30:50 86° E 18:34:54 10° N
NOSS 2-2 (D) 3.7 18:27:29 10° SW 18:30:51 58° NW 18:34:36 10° NNE
Ariane Rocket 3.7 18:26:56 10° SE 18:31:31 36° ENE 18:36:06 10° N
Cosmos 1328 4.2 18:29:38 10° N 18:33:33 45° ENE 18:37:24 10° SSE
Cosmos 2322 Rocket 3.0 18:28:41 10° NNW 18:33:57 36° NE 18:39:11 10° ESE
ATLAS 5 CENTAUR R/B 3.0 18:33:12 10° N 18:34:03 12° NNE 18:34:51 10° NE
Meteor 1-16 Rocket 4.1 18:28:50 10° S 18:34:07 73° E 18:39:32 10° NNE
Cosmos 2228 4.5 18:33:51 10° SE 18:36:52 18° E 18:39:52 10° NE
SL-27 R/B 4.4 18:37:01 10° ESE 18:38:07 12° E 18:39:24 10° ENE
Cosmos 2082 Rocket 2.8 18:34:34 10° SW 18:40:12 63° WNW 18:45:51 10° NNE
Lacrosse 5 rocket 2.8 18:37:54 10° SSE 18:40:31 17° ESE 18:43:14 10° E
BREEZE-M DEB (TANK) 3.5 18:40:22 10° WNW 18:43:06 85° SSW 18:48:51 12° ESE
Cosmos 1703 3.2 18:40:20 10° N 18:44:15 89° WSW 18:48:07 10° S
ATLAS 2AS CENTAUR R/B 4.3 18:41:25 10° SE 18:45:35 15° ESE 18:49:44 10° ENE
Okean-O 4.4 18:41:42 10° SSW 18:45:44 34° W 18:49:47 10° NNW
Cosmos 1346 Rocket 3.5 18:42:14 10° NNW 18:46:06 55° W 18:49:54 10° S
Cosmos 1441 Rocket 4.0 18:43:53 10° N 18:47:28 34° ENE 18:50:46 12° SE
Cosmos 1758 Rocket 4.3 18:43:45 10° N 18:47:50 35° ENE 18:51:48 11° SE
Cosmos 1602 Rocket 3.5 18:48:07 10° N 18:52:26 66° E 18:56:45 10° SSE
USA 186 2.0 18:49:47 10° S 18:53:04 77° WSW 18:56:22 10° NNW
SJ-6B 2.6 18:49:28 10° SSE 18:53:10 71° ENE 18:56:54 10° N
Cosmos 1110 Rocket 4.3 18:48:45 10° NNW 18:53:49 50° ENE 18:58:16 13° SE
USA 276 3.4 18:52:59 10° W 18:55:51 32° SW 18:58:15 13° SSE
ERS-2 3.2 18:55:35 10° N 18:59:07 50° WNW 19:02:40 10° SSW
Lacrosse 4 Rocket 1.8 18:55:02 10° NW 18:59:23 66° WSW 19:03:35 10° SSE
Cosmos 1408 4.5 18:59:08 10° NE 19:01:04 14° ENE 19:01:40 13° E
BREEZE-M DEB (TANK) 4.1 18:59:41 10° S 19:02:46 15° SSE 19:03:21 14° SE
SL-8 R/B 3.7 18:59:41 10° WSW 19:04:32 86° SSE 19:09:22 10° ENE
Cosmos 1331 Rocket 4.1 19:00:35 10° NNW 19:05:41 56° ENE 19:09:43 16° SE
Cosmos 1315 Rocket 3.7 19:02:38 10° SSW 19:06:37 53° WNW 19:10:36 10° N
Cosmos 292 Rocket 4.1 19:03:51 10° NNW 19:08:42 69° WSW 19:13:31 10° S
BREEZE-M DEB (TANK) 3.2 19:06:13 10° SW 19:09:34 59° SE 19:20:01 10° ENE
SPOT 3 Rocket 4.0 19:09:19 17° SE 19:12:56 43° ENE 19:17:51 10° N
USA 238 DEB 3.9 19:06:43 10° NW 19:13:59 80° NE 19:19:54 18° SE
USA 238 3.9 19:06:50 10° NW 19:14:06 79° NE 19:20:00 18° SE
Cosmos 1626 Rocket 4.4 19:10:55 10° NNW 19:15:10 52° W 19:19:25 10° S
Cosmos 2237 4.5 19:12:15 10° NNW 19:17:51 53° ENE 19:21:27 22° SE
Cosmos 1300 2.5 19:16:19 10° S 19:20:07 81° E 19:23:57 10° N
Cosmos 1048 Rocket 4.1 19:15:14 10° SSW 19:20:30 81° WNW 19:25:52 10° NNE
Cosmos 2360 Rocket 2.6 19:15:21 10° NNW 19:20:49 47° ENE 19:24:03 23° ESE
Meteor 2-13 Rocket 4.4 19:15:29 10° N 19:21:35 86° E 19:27:41 10° S
NOSS 3-2 (A) 4.2 19:14:06 10° NW 19:21:40 81° SW 19:28:46 16° SSE
Cosmos 1606 Rocket 3.9 19:18:55 15° SSE 19:22:19 45° E 19:26:30 10° NNE
USA 32 4.4 19:18:25 10° SSW 19:23:37 68° W 19:28:51 10° N
Resurs 01 Rocket 1.9 19:21:06 23° SE 19:23:38 51° ENE 19:27:58 10° N
SL-16 R/B 2.3 19:20:48 10° NNW 19:26:30 79° WSW 19:30:59 17° SSE
Cosmos 1825 3.9 19:24:11 10° NNE 19:26:44 17° ENE 19:26:44 17° ENE
Cosmos 2034 Rocket 3.9 19:23:36 10° S 19:29:42 69° E 19:35:55 10° NNE
CZ-4C R/B 2.1 19:26:09 10° SSW 19:30:47 50° ESE 19:36:21 10° NE
OBJECT-B 2.4 19:30:03 10° SSW 19:32:59 33° W 19:35:58 10° NNW
Meteor 2-10 Rocket 3.8 19:31:14 22° SSE 19:34:09 43° E 19:39:07 10° NNE
Landsat 7 4.1 19:32:37 28° SE 19:34:47 50° ENE 19:39:24 10° N
Cosmos 1726 Rocket 3.7 19:33:57 26° SSE 19:36:07 49° E 19:40:22 10° NNE
Cosmos 1184 Rocket 3.2 19:33:06 10° NNW 19:36:15 58° W 19:37:56 24° S
Cosmos 2098 Rocket 4.3 19:30:53 10° N 19:37:05 55° ENE 19:41:26 24° SE
USA 215 3.4 19:32:56 21° SE 19:37:27 67° SW 19:43:59 10° NW
ERS-1 Rocket 4.3 19:36:16 20° E 19:37:28 22° ENE 19:41:19 10° NNE
Cosmos 2058 Rocket 3.7 19:40:27 33° E 19:40:43 34° E 19:44:40 10° NNE
Spot 2 Rocket 4.3 19:40:34 29° ESE 19:42:09 36° ENE 19:46:46 10° N
Cosmos 2219 Rocket 3.3 19:37:44 10° N 19:42:44 30° NE 19:44:53 24° E
Cosmos 1464 Rocket 4.3 19:36:42 10° SSW 19:43:02 71° W 19:49:20 10° N
ATLAS 3B R/B 3.9 19:38:40 10° NNW 19:44:51 33° NNE 19:49:09 18° E
CENTAUR R/B 3.3 19:38:43 10° NW 19:46:53 82° SW 19:52:44 25° SSE
Cosmos 1269 Rocket 4.0 19:43:27 10° S 19:48:37 58° ESE 19:53:51 10° NNE
SPOT 5 4.0 19:51:05 24° ENE 19:51:23 24° ENE 19:55:01 10° N
Nadezhda 4 Rocket 4.1 19:45:08 10° N 19:51:29 78° W 19:56:44 15° S
SWAS 4.5 19:49:08 10° NNW 19:53:27 67° ENE 19:54:25 50° ESE
Resurs 1-3 4.5 19:51:12 15° S 19:54:38 46° W 19:58:53 10° NNW
Cosmos 2344 4.0 19:49:37 10° S 19:56:18 35° ESE 20:03:04 10° NE
Cosmos 2237 Rocket 4.1 19:53:06 10° N 19:56:31 16° NE 19:58:47 13° ENE
Cosmos 1953 Rocket 3.4 19:54:12 10° N 19:58:39 88° E 20:00:00 44° S
Cosmos 1455 3.0 20:00:06 35° NE 20:00:06 35° NE 20:02:44 10° NNE
In-Cosmos 22 Rocket 4.3 19:53:37 10° NNW 19:59:27 85° W 20:02:47 27° S
Cosmos 2333 Rocket 2.7 19:54:27 10° NNW 20:00:01 45° NE 20:01:44 35° E
Meteor 2-19 Rocket 4.4 19:55:07 10° N 20:01:14 65° ENE 20:03:42 37° SSE
Cosmos 1627 Rocket 4.4 19:57:03 10° N 20:03:10 67° E 20:05:36 37° SSE
Cosmos 2058 3.3 20:04:09 10° N 20:08:05 48° ENE 20:08:05 48° ENE
Cosmos 2026 Rocket 3.8 20:03:49 10° N 20:09:54 72° E 20:12:06 41° SSE
Cosmos 1302 Rocket 4.0 20:05:27 10° NNW 20:10:47 81° WSW 20:12:32 43° S
IGS 5A 3.8 20:10:55 42° SSW 20:12:06 61° W 20:16:14 10° NNW
SL-27 R/B 3.3 20:10:18 18° SW 20:12:43 50° WNW 20:16:10 10° N
ATLAS 5 CENTAUR R/B 2.2 20:08:55 10° WSW 20:12:50 53° NW 20:17:17 10° NNE
Cosmos 1634 Rocket 3.9 20:09:58 33° SSE 20:12:56 68° E 20:19:11 10° NNE
CZ-2C R/B 3.5 20:08:47 10° NNE 20:13:19 89° ESE 20:14:42 44° SSW
Cosmos 2228 4.1 20:09:52 10° SSW 20:14:03 44° WNW 20:18:15 10° N
Atlas Centaur 2 4.1 20:09:07 10° WSW 20:15:25 24° S 20:16:22 23° S
Cosmos 2322 Rocket 3.2 20:12:44 10° NW 20:18:03 41° WSW 20:21:07 23° SSW
Lacrosse 5 rocket 1.4 20:15:03 10° SW 20:19:07 79° NW 20:20:53 34° NE
Cosmos 2322 3.8 20:13:35 10° NNW 20:19:13 63° ENE 20:20:22 51° ESE
ARIANE 5 R/B 2.5 20:19:51 70° E 20:20:04 72° ENE 20:24:30 10° N
NOSS 3-4 (A) 3.2 20:15:39 10° SSW 20:21:25 77° SE 20:27:39 10° NE
NOSS 3-4 (C) 3.2 20:15:43 10° SSW 20:21:31 76° SE 20:27:46 10° NE
NOSS 3-2 (C) 4.4 20:18:55 10° NW 20:26:22 58° WSW 20:30:27 31° S
Cosmos 1892 3.6 20:23:31 10° NNW 20:27:06 42° W 20:27:29 41° WSW
IRIDIUM 103 4.3 20:28:36 60° E 20:28:41 60° E 20:33:50 10° N
CARTOSAT-1 3.6 20:29:06 70° NE 20:29:06 70° NE 20:33:10 10° N
SeaSat 1 4.2 20:29:53 10° NE 20:31:25 19° NE 20:31:25 19° NE
ATLAS 2AS CENTAUR R/B 2.9 20:27:27 10° SSW 20:35:17 67° ESE 20:43:00 10° NE
Cosmos 1408 3.7 20:32:53 10° NNW 20:35:58 40° WNW 20:35:58 40° WNW
COSMOS 2428 2.8 20:33:12 10° NNW 20:38:54 62° ENE 20:39:28 59° E
Terra 2.3 20:40:21 48° NE 20:40:21 48° NE 20:44:30 10° N
Cosmos 1992 Rocket 3.8 20:38:00 10° NNW 20:43:14 83° ENE 20:43:22 82° E
SL-16 R/B 4.3 20:41:13 10° N 20:44:21 15° NE 20:46:10 13° ENE
IRIDIUM 106 4.2 20:46:53 85° ESE 20:46:58 85° E 20:52:13 10° N
SL-8 R/B 3.8 20:42:25 10° W 20:47:15 69° N 20:47:20 69° N
SPOT 1/Viking Rocket 4.2 20:47:22 43° SW 20:48:32 51° W 20:53:39 10° NNW
Cosmos 1076 Rocket 4.2 20:48:03 10° N 20:51:25 51° N 20:51:25 51° N
Cosmos 2333 4.3 20:47:12 10° NNW 20:52:57 66° WSW 20:53:36 61° SSW
Resurs 01 Rocket 3.9 20:58:39 15° WSW 21:00:25 18° W 21:03:28 10° NW
Cosmos 1825 3.9 20:58:55 10° NNW 21:01:31 31° WNW 21:01:31 31° WNW
Cosmos 2360 Rocket 3.5 20:59:44 10° NW 21:04:36 30° WSW 21:05:50 28° SW
Meteor 2-14 Rocket 4.3 21:01:59 10° N 21:08:06 80° E 21:08:07 80° E
Cosmos 2251 Rocket 4.0 21:10:55 53° NNE 21:10:55 53° NNE 21:14:59 10° NNE
Exosat Rocket 4.1 21:06:34 10° NNW 21:13:38 63° WSW 21:14:03 61° SW
Cosmos 2151 4.4 21:09:22 10° N 21:11:58 35° N 21:11:58 35° N
ERS-1 Rocket 3.5 21:16:15 53° W 21:16:15 53° W 21:20:52 10° NNW
Meteor 2-21 Rocket 4.4 21:11:40 10° N 21:17:24 72° NE 21:17:24 72° NE
CZ-4C R/B 3.6 21:14:45 10° W 21:19:31 36° NW 21:25:13 10° NNE
Cosmos 2219 Rocket 2.7 21:21:27 10° NW 21:26:36 50° W 21:26:36 50° W
SPOT 5 4.1 21:30:18 33° WNW 21:30:18 33° WNW 21:33:30 10° NNW
ATLAS 3B R/B 2.6 21:29:13 10° NW 21:36:16 81° SW 21:36:24 81° SW
Meteor 2-16 Rocket 4.5 21:31:13 10° N 21:36:50 75° N 21:36:50 75° N
Cosmos 2237 Rocket 2.7 21:36:00 10° NNW 21:40:36 57° N 21:40:36 57° N
Cosmos 2333 Rocket 3.5 21:39:02 10° NW 21:43:45 32° W 21:43:45 32° W
Meteor 2-3 Rocket 4.2 21:45:56 10° NNW 21:50:46 59° NW 21:50:46 59° NW
Cosmos 2227 Rocket 3.9 22:00:48 24° NE 22:00:48 24° NE 22:03:08 10° NE
Lacrosse 5 rocket 3.9 21:55:18 10° WNW 21:56:46 18° WNW 21:56:46 18° WNW
Cosmos 2297 Rocket 3.5 22:09:15 32° NE 22:09:15 32° NE 22:12:15 10° NNE
Cosmos 2344 4.1 22:03:00 10° WSW 22:10:16 55° NW 22:18:16 10° NE
SeaSat 1 3.8 22:07:19 10° NNE 22:11:11 37° NNW 22:11:11 37° NNW
Terra 4.1 22:19:14 18° WNW 22:19:14 18° WNW 22:21:27 10° NW
ATLAS 2AS CENTAUR R/B 4.0 22:19:20 10° WSW 22:26:47 42° NW 22:34:01 10° NNE
SL-16 R/B 3.2 22:24:01 10° NNW 22:28:02 44° N 22:28:02 44° N
USA 281 3.5 23:12:45 61° NNW 23:12:45 61° NNW 23:18:05 10° NNW
Lacrosse 5 rocket 4.2 23:41:20 16° NE 23:41:20 16° NE 23:42:42 10° ENE
SL-16 R/B 4.0 23:38:12 27° ENE 23:39:21 29° ENE 23:44:35 10° N
Cosmos 2227 Rocket 3.7 23:42:35 31° NW 23:42:35 31° NW 23:47:00 10° NNE
CZ-2D R/B 4.1 23:43:38 10° NE 23:46:37 20° ENE 23:46:37 20° ENE
Cosmos 2297 Rocket 4.0 23:51:01 23° NW 23:51:14 23° NW 23:55:41 10° N
